Location: Hamilton
(43.2500°N, 79.8330°W)
Time: 19:45:51
(UTC-05:00)

Amateur Radio Satellites - All Passes

Search period start: 05 December 2016 19:15
Search period end: 06 December 2016 19:15
Location: Hamilton, 43.2500°N, 79.8330°W

Satellite Date Start Highest point End Downlink Frequencies (MHz)
Time Altitude Azimuth
PCSat 05 Dec 19:17:53 19:21:44 19° 41° (NE) 19:25:33 145.827
CINEMA 3 05 Dec 19:21:18 19:26:07 54° 261° (W) 19:31:04 145.822/145.860
SO-50 05 Dec 19:29:05 19:32:30 20° 111° (ESE) 19:35:55 436.795
Cosmos 2504 05 Dec 19:33:42 19:41:32 46° 87° (E) 19:49:46 435.465 / 435.565
ZACube-1 05 Dec 19:33:43 19:37:22 24° 67° (ENE) 19:40:59 437.345
Cosmos 2491 05 Dec 19:34:20 19:42:17 42° 274° (W) 19:50:15 435.465 / 435.565
CUTE 1.7 + AOD 2 05 Dec 19:38:34 19:42:41 52° 261° (W) 19:46:49 437.475
Cubesat XI-IV 05 Dec 19:39:14 19:39:49 10° 273° (W) 19:40:23 437.490
DOVE 4 05 Dec 19:40:53 19:41:56 11° 275° (W) 19:43:01 437.250
FUNcube-1 05 Dec 19:41:35 19:45:21 27° 68° (ENE) 19:49:05 145.935
CUBEBUG 2 05 Dec 19:42:48 19:47:33 72° 75° (ENE) 19:52:17 437.445
STRAND 1 05 Dec 19:51:37 19:56:45 86° 103° (ESE) 20:01:51 437.568
RS-15 05 Dec 19:54:11 19:58:46 13° 268° (W) 20:03:19 29.354- 29.394
CANX-2 05 Dec 19:57:04 20:00:44 28° 264° (W) 20:04:24 2200.000
YUBILEINY 05 Dec 20:01:51 20:10:29 68° 281° (W) 20:19:15 435.215
AAUSAT CUBESAT 2 05 Dec 20:04:31 20:08:37 76° 258° (WSW) 20:12:44 437.432
Oscar 11 05 Dec 20:12:23 20:16:34 51° 73° (ENE) 20:20:46 145.826/435.025
SEEDS 05 Dec 20:23:48 20:27:14 24° 265° (W) 20:30:40 437.485
UWE-3 05 Dec 20:26:32 20:31:10 63° 259° (W) 20:35:46 435.000/436.395/437.385
HO-68 05 Dec 20:31:02 20:36:58 28° 266° (W) 20:42:58 435.675
CUSAT 1 05 Dec 20:31:48 20:35:22 74° 81° (E) 20:40:00 437.405
COMPASS 1 05 Dec 20:35:02 20:38:32 27° 265° (W) 20:42:03 437.405
AIST 1 05 Dec 20:43:26 20:47:29 39° 284° (WNW) 20:51:35
ISS 05 Dec 20:51:14 20:53:53 21° 11° (N) 20:56:30 145.825
PCSat 05 Dec 21:00:23 21:05:51 85° 241° (WSW) 21:11:16 145.827
HUMSAT D 05 Dec 21:05:26 21:09:19 37° 71° (ENE) 21:13:11 437.325/437.525
DELFI C3 05 Dec 21:07:17 21:11:11 74° 76° (ENE) 21:15:07 145.870
SO-50 05 Dec 21:07:56 21:12:37 55° 308° (NW) 21:17:15 436.795
ZACube-1 05 Dec 21:09:16 21:13:28 36° 263° (W) 21:17:37 437.345
PRISM 05 Dec 21:09:41 21:13:36 39° 99° (E) 21:17:31 437.425
DANDE 05 Dec 21:13:52 21:16:31 42° 79° (ENE) 21:19:40 436.750
FUNcube-1 05 Dec 21:17:25 21:21:28 32° 264° (W) 21:25:30 145.935
CUBEBUG 2 05 Dec 21:22:30 21:24:37 13° 271° (W) 21:26:45 437.445
Cosmos 2504 05 Dec 21:27:09 21:34:58 42° 289° (WNW) 21:43:15 435.465 / 435.565
STRAND 1 05 Dec 21:32:47 21:35:12 14° 302° (WNW) 21:37:38 437.568
UNISAT 6 05 Dec 21:35:00 21:37:56 17° 91° (E) 21:40:50 437.425
Oscar 11 05 Dec 21:50:30 21:53:00 15° 269° (W) 21:55:30 145.826/435.025
TIGRISAT 05 Dec 22:04:21 22:08:21 33° 96° (E) 22:12:14 435.000
YUBILEINY 05 Dec 22:04:52 22:09:15 14° 305° (NW) 22:13:39 435.215
ANTELSAT 05 Dec 22:05:39 22:09:43 36° 97° (E) 22:13:42 437.575/2403.000
ESTCUBE 1 05 Dec 22:12:12 22:16:07 31° 68° (ENE) 22:20:03 437.505/2401.250
AISAT 05 Dec 22:21:26 22:24:27 18° 63° (ENE) 22:27:28 437.250
ISS 05 Dec 22:27:32 22:30:50 64° 30° (NNE) 22:34:08 145.825
50 SAT 05 Dec 22:34:35 22:36:33 14° 65° (ENE) 22:38:30 437.505
HUMSAT D 05 Dec 22:41:59 22:45:03 19° 267° (W) 22:48:06 437.325/437.525
PRISM 05 Dec 22:45:39 22:48:38 19° 295° (WNW) 22:51:36 437.425
PCSat 05 Dec 22:46:33 22:48:22 12° 258° (WSW) 22:50:11 145.827
CUBEBUG 1 05 Dec 22:47:10 22:51:16 43° 71° (ENE) 22:55:27 437.445
SO-50 05 Dec 22:52:17 22:54:07 12° 329° (NNW) 22:55:56 436.795
VELOX 1 05 Dec 22:57:05 23:01:09 38° 70° (ENE) 23:05:16 145.980
POPSAT HIP 1 05 Dec 22:58:38 23:01:00 15° 91° (E) 23:03:22 437.405
UNISAT 6 05 Dec 23:10:41 23:14:55 44° 289° (WNW) 23:19:01 437.425
DX 1 05 Dec 23:11:53 23:15:40 30° 68° (ENE) 23:19:30 434.975-435.025
UKube-1 05 Dec 23:19:52 23:23:30 27° 67° (ENE) 23:27:10 .
SPROUT 05 Dec 23:32:33 23:36:46 58° 74° (ENE) 23:41:01 437.525
JAS-2 05 Dec 23:36:17 23:41:23 55° 101° (E) 23:46:42 435.910
BUGSAT 1 05 Dec 23:39:04 23:41:07 13° 90° (E) 23:43:09 437.445
TIGRISAT 05 Dec 23:41:19 23:44:53 24° 294° (WNW) 23:48:21 435.000
ANTELSAT 05 Dec 23:42:48 23:46:13 22° 295° (WNW) 23:49:35 437.575/2403.000
ESTCUBE 1 05 Dec 23:49:08 23:52:54 26° 265° (W) 23:56:42 437.505/2401.250
NANOSAT C BR1 05 Dec 23:52:09 23:56:19 53° 100° (E) 00:00:26 145.865
AISAT 05 Dec 23:56:17 00:00:32 48° 260° (W) 00:04:52 437.250
QB50P2 05 Dec 23:57:38 00:01:54 72° 103° (ESE) 00:06:06 145.880/145.840
POLYITAN 1 05 Dec 23:58:11 00:02:26 68° 101° (ESE) 00:06:37 437.675
ISS 06 Dec 00:04:46 00:07:02 17° 227° (SW) 00:09:18 145.825
50 SAT 06 Dec 00:06:16 00:09:31 36° 261° (W) 00:12:49 437.505
QB50P1 06 Dec 00:11:20 00:15:37 86° 284° (WNW) 00:19:50 145.935-145.965
DUCHIFAT 1 06 Dec 00:14:29 00:18:45 88° 107° (ESE) 00:22:56 145.980
CUBEBUG 1 06 Dec 00:24:44 00:27:45 18° 268° (W) 00:30:49 437.445
O/OREOS (USA 219) 06 Dec 00:25:27 00:26:56 11° 47° (NE) 00:28:25 437.305
Oscar 19 06 Dec 00:26:35 00:28:31 12° 88° (E) 00:30:27 437.125/150
Cosmos 2499 06 Dec 00:26:41 00:34:54 54° 90° (E) 00:43:27 435.465 / 435.565
AUBIESAT-1 06 Dec 00:29:16 00:31:26 14° 54° (NE) 00:33:42 437.475
POPSAT HIP 1 06 Dec 00:32:57 00:37:05 50° 288° (WNW) 00:41:10 437.405
VELOX 1 06 Dec 00:34:23 00:37:44 21° 266° (W) 00:41:07 145.980
GONETS M04 06 Dec 00:39:13 00:47:41 58° 91° (E) 00:56:08
M-CUBED/EXP-1 PRIME 06 Dec 00:40:06 00:43:14 21° 58° (ENE) 00:46:31 437.505
PHONESAT 2.4 06 Dec 00:40:33 00:42:20 16° 157° (SSE) 00:44:06 2401.200-2431.200
SWISSCUBE 06 Dec 00:42:40 00:45:30 16° 61° (ENE) 00:48:20 437.505
BEESAT 06 Dec 00:46:48 00:49:35 16° 61° (ENE) 00:52:23 436.000
DX 1 06 Dec 00:48:12 00:51:51 26° 265° (W) 00:55:31 434.975-435.025
TISAT 1 06 Dec 00:55:23 00:59:37 80° 75° (ENE) 01:03:54 437.305
UKube-1 06 Dec 00:55:45 00:59:28 28° 264° (W) 01:03:13 .
SPROUT 06 Dec 01:11:00 01:13:04 13° 270° (W) 01:15:08 437.525
AO-85 06 Dec 01:12:39 01:15:50 17° 111° (ESE) 01:18:54 145.980
BUGSAT 1 06 Dec 01:12:43 01:16:50 54° 287° (WNW) 01:20:52 437.445
ITUPSAT 1 06 Dec 01:12:52 01:16:50 26° 66° (ENE) 01:20:48 437.325
JAS-2 06 Dec 01:22:31 01:26:08 19° 298° (WNW) 01:29:48 435.910
NANOSAT C BR1 06 Dec 01:29:10 01:31:36 15° 297° (WNW) 01:34:01 145.865
QB50P2 06 Dec 01:35:31 01:37:06 12° 299° (WNW) 01:38:40 145.880/145.840
POLYITAN 1 06 Dec 01:35:54 01:37:40 12° 299° (WNW) 01:39:24 437.675
MOZHAYETS 4 06 Dec 01:54:40 01:57:34 17° 63° (ENE) 02:00:28
Gurwin Techsat 1B 06 Dec 01:57:37 02:02:43 45° 98° (E) 02:07:47 435.225
AUBIESAT-1 06 Dec 02:01:05 02:05:12 72° 253° (WSW) 02:09:38 437.475
O/OREOS (USA 219) 06 Dec 02:02:34 02:07:05 86° 67° (ENE) 02:11:33 437.305
Oscar 19 06 Dec 02:03:16 02:08:29 85° 284° (WNW) 02:13:41 437.125/150
M-CUBED/EXP-1 PRIME 06 Dec 02:13:28 02:17:22 42° 257° (WSW) 02:21:34 437.505
PHONESAT 2.4 06 Dec 02:14:40 02:17:12 40° 173° (S) 02:19:43 2401.200-2431.200
SWISSCUBE 06 Dec 02:18:02 02:22:46 65° 258° (WSW) 02:27:32 437.505
Cosmos 2499 06 Dec 02:20:32 02:28:20 37° 291° (WNW) 02:36:25 435.465 / 435.565
BEESAT 06 Dec 02:22:06 02:26:50 66° 258° (WSW) 02:31:35 436.000
KKS-1 06 Dec 02:26:33 02:29:13 16° 62° (ENE) 02:31:54 437.445
ITAMSAT 1 06 Dec 02:32:01 02:35:56 21° 93° (E) 02:39:49 435.822/435.867
GONETS M04 06 Dec 02:37:19 02:44:56 33° 292° (WNW) 02:52:37
ITUPSAT 1 06 Dec 02:50:07 02:54:30 36° 262° (W) 02:58:56 437.325
AO-85 06 Dec 02:51:03 02:55:55 63° 306° (NW) 03:00:26 145.980
MOZHAYETS 4 06 Dec 03:29:47 03:34:17 56° 259° (W) 03:38:49
CUBESAT XI-V 06 Dec 03:32:56 03:36:38 24° 66° (ENE) 03:40:20 437.345
Gurwin Techsat 1B 06 Dec 03:38:06 03:42:25 26° 296° (WNW) 03:46:43 435.225
Oscar 19 06 Dec 03:44:53 03:47:00 13° 303° (WNW) 03:49:08 437.125/150
AO-7 06 Dec 03:45:05 03:53:17 55° 102° (ESE) 04:01:27 29.400- 29.500
PHONESAT 2.4 06 Dec 03:49:44 03:52:14 37° 189° (S) 03:54:42 2401.200-2431.200
SO-50 06 Dec 03:58:23 04:02:13 26° 43° (NE) 04:05:59 436.795
KKS-1 06 Dec 04:00:55 04:05:18 58° 259° (W) 04:09:46 437.445
STARS 06 Dec 04:07:06 04:11:32 78° 74° (ENE) 04:15:59 437.465
BEESAT 3 06 Dec 04:07:09 04:08:17 11° 108° (ESE) 04:09:26 437.485
ITAMSAT 1 06 Dec 04:10:40 04:15:40 50° 290° (WNW) 04:20:38 435.822/435.867
YUBILEINY 06 Dec 04:16:15 04:20:34 14° 55° (NE) 04:24:53 435.215
BRITE-PL 06 Dec 04:31:55 04:36:08 22° 92° (E) 04:40:28 437.365/2234.400
AO-85 06 Dec 04:35:14 04:37:09 12° 325° (NW) 04:39:01 145.980
BEESAT 2 06 Dec 04:36:33 04:37:14 10° 108° (ESE) 04:37:54 435.950
HORYU 2 06 Dec 05:05:37 05:09:24 27° 96° (E) 05:13:09 437.375
CUBESAT XI-V 06 Dec 05:09:37 05:13:49 36° 263° (W) 05:18:04 437.345
PHONESAT 2.4 06 Dec 05:25:35 05:27:03 14° 205° (SSW) 05:28:30 2401.200-2431.200
Cosmos 2504 06 Dec 05:25:55 05:31:52 19° 59° (ENE) 05:37:37 435.465 / 435.565
STRAND 1 06 Dec 05:31:24 05:34:54 19° 61° (ENE) 05:38:25 437.568
AO-7 06 Dec 05:38:17 05:45:45 38° 302° (WNW) 05:53:13 29.400- 29.500
SO-50 06 Dec 05:38:34 05:42:52 43° 242° (WSW) 05:47:05 436.795
BEESAT 3 06 Dec 05:41:27 05:45:20 68° 305° (NW) 05:49:17 437.485
CUTE-I 06 Dec 05:44:37 05:48:43 22° 93° (E) 05:52:48 437.470
GOMX 1 06 Dec 05:45:41 05:50:56 46° 98° (E) 05:56:11 467.674
STARS 06 Dec 05:47:46 05:48:25 10° 271° (W) 05:49:03 437.465
RS-15 06 Dec 05:52:47 06:00:48 22° 98° (E) 06:09:01 29.354- 29.394
NOAA 18 06 Dec 05:53:55 05:57:29 17° 91° (E) 06:01:01 137.9125
DOVE 4 06 Dec 05:57:00 06:01:23 26° 93° (E) 06:05:38 437.250
LilacSat-2 06 Dec 05:57:58 06:01:13 27° 95° (E) 06:04:27 437.200
NOAA 15 06 Dec 06:06:58 06:11:54 38° 98° (E) 06:16:48 137.62
BRITE-PL 06 Dec 06:09:34 06:14:49 54° 288° (WNW) 06:20:17 437.365/2234.400
Cubesat XI-IV 06 Dec 06:10:00 06:14:55 37° 97° (E) 06:19:49 437.490
BEESAT 2 06 Dec 06:10:28 06:14:24 74° 306° (NW) 06:18:24 435.950
YUBILEINY 06 Dec 06:10:34 06:19:22 66° 78° (ENE) 06:28:08 435.215
Cosmos 2491 06 Dec 06:39:34 06:47:52 50° 89° (E) 06:56:10 435.465 / 435.565
HORYU 2 06 Dec 06:42:03 06:45:55 30° 293° (WNW) 06:49:45 437.375
AIST 1 06 Dec 06:48:52 06:53:12 53° 79° (ENE) 06:57:31
STRAND 1 06 Dec 07:08:32 07:13:37 61° 259° (WSW) 07:18:43 437.568
CINEMA 3 06 Dec 07:15:22 07:19:48 36° 96° (E) 07:24:03 145.822/145.860
Cosmos 2504 06 Dec 07:17:52 07:26:46 83° 82° (E) 07:35:07 435.465 / 435.565
CUTE 1.7 + AOD 2 06 Dec 07:22:41 07:26:07 24° 94° (E) 07:29:32 437.475
BEESAT 3 06 Dec 07:22:41 07:23:44 11° 325° (NW) 07:24:47 437.485
CUTE-I 06 Dec 07:23:53 07:29:01 50° 290° (WNW) 07:34:08 437.470
GOMX 1 06 Dec 07:24:13 07:28:44 27° 294° (WNW) 07:33:16 467.674
LilacSat-2 06 Dec 07:32:27 07:35:23 22° 292° (WNW) 07:38:18 437.200
NOAA 18 06 Dec 07:33:07 07:38:38 68° 288° (WNW) 07:44:05 137.9125
DOVE 4 06 Dec 07:34:11 07:39:11 43° 290° (WNW) 07:44:04 437.250
CUBEBUG 2 06 Dec 07:34:38 07:36:47 13° 89° (E) 07:38:52 437.445
CANX-2 06 Dec 07:40:17 07:44:18 43° 98° (E) 07:48:19 2200.000
AAUSAT CUBESAT 2 06 Dec 07:46:44 07:49:13 15° 91° (E) 07:51:41 437.432
NOAA 15 06 Dec 07:47:01 07:51:31 29° 295° (WNW) 07:56:01 137.62
Cubesat XI-IV 06 Dec 07:50:15 07:54:52 31° 295° (WNW) 07:59:29 437.490
BEESAT 2 06 Dec 07:51:30 07:52:56 12° 325° (NW) 07:54:21 435.950
HO-68 06 Dec 07:55:47 08:02:52 56° 101° (ESE) 08:09:55 435.675
RS-15 06 Dec 07:59:30 08:11:16 82° 120° (ESE) 08:23:37 29.354- 29.394
PRISM 06 Dec 08:00:01 08:03:38 32° 69° (ENE) 08:07:17 437.425
SEEDS 06 Dec 08:05:32 08:09:37 48° 99° (E) 08:13:39 437.485
YUBILEINY 06 Dec 08:08:21 08:15:27 28° 279° (W) 08:22:33 435.215
UWE-3 06 Dec 08:15:54 08:19:22 23° 94° (E) 08:22:46 435.000/436.395/437.385
COMPASS 1 06 Dec 08:15:54 08:19:51 41° 98° (E) 08:23:47 437.405
AIST 1 06 Dec 08:28:02 08:30:17 14° 276° (W) 08:32:34
UNISAT 6 06 Dec 08:34:34 08:37:56 20° 65° (ENE) 08:41:18 437.425
Cosmos 2491 06 Dec 08:36:53 08:44:54 38° 289° (WNW) 08:52:57 435.465 / 435.565
AIST 2 06 Dec 08:38:06 08:42:13 81° 304° (WNW) 08:46:24 435.215
CINEMA 3 06 Dec 08:52:46 08:56:45 26° 294° (WNW) 09:00:36 145.822/145.860
ZACube-1 06 Dec 08:56:23 09:00:23 39° 98° (E) 09:04:16 437.345
CUTE 1.7 + AOD 2 06 Dec 08:58:15 09:01:58 30° 290° (WNW) 09:05:39 437.475
TIGRISAT 06 Dec 09:03:29 09:07:43 35° 69° (ENE) 09:11:57 435.000
FUNcube-1 06 Dec 09:03:59 09:08:02 43° 99° (E) 09:11:59 145.935
ANTELSAT 06 Dec 09:04:53 09:09:13 38° 70° (ENE) 09:13:30 437.575/2403.000
CUBEBUG 2 06 Dec 09:09:28 09:13:49 57° 287° (WNW) 09:18:00 437.445
Cosmos 2504 06 Dec 09:12:53 09:18:58 22° 283° (WNW) 09:24:51 435.465 / 435.565
NOAA 18 06 Dec 09:16:53 09:18:16 11° 307° (NW) 09:19:37 137.9125
CANX-2 06 Dec 09:16:59 09:19:50 18° 295° (WNW) 09:22:41 2200.000
AAUSAT CUBESAT 2 06 Dec 09:20:58 09:24:56 46° 288° (WNW) 09:28:53 437.432
Oscar 11 06 Dec 09:34:17 09:38:36 88° 285° (WNW) 09:42:55 145.826/435.025
PRISM 06 Dec 09:35:49 09:38:58 21° 266° (W) 09:42:08 437.425
CUSAT 1 06 Dec 09:36:56 09:40:06 69° 100° (E) 09:42:49 437.405
AO-85 06 Dec 09:42:14 09:45:08 19° 41° (NE) 09:47:57 145.980
SEEDS 06 Dec 09:42:20 09:44:55 16° 296° (WNW) 09:47:31 437.485
HO-68 06 Dec 09:44:05 09:50:13 32° 300° (WNW) 09:56:22 435.675
JAS-2 06 Dec 09:49:54 09:55:14 30° 66° (ENE) 10:00:07 435.910
UWE-3 06 Dec 09:52:02 09:55:52 31° 291° (WNW) 09:59:35 435.000/436.395/437.385
COMPASS 1 06 Dec 09:52:15 09:55:06 18° 295° (WNW) 09:57:55 437.405
POPSAT HIP 1 06 Dec 09:52:34 09:54:47 14° 62° (ENE) 09:57:00 437.405
UNISAT 6 06 Dec 10:09:47 10:14:19 47° 261° (W) 10:18:49 437.425
RS-15 06 Dec 10:14:11 10:25:13 40° 327° (NNW) 10:36:38 29.354- 29.394
Cosmos 2499 06 Dec 10:17:55 10:24:10 21° 60° (ENE) 10:30:07 435.465 / 435.565
DELFI C3 06 Dec 10:18:02 10:22:01 76° 284° (WNW) 10:26:00 145.870
AIST 2 06 Dec 10:19:23 10:21:24 13° 324° (NW) 10:23:24 435.215
HUMSAT D 06 Dec 10:22:46 10:26:49 60° 101° (E) 10:30:49 437.325/437.525
DANDE 06 Dec 10:23:04 10:27:41 64° 99° (E) 10:31:10 436.750
BUGSAT 1 06 Dec 10:30:26 10:32:08 12° 61° (ENE) 10:33:51 437.445
ZACube-1 06 Dec 10:33:21 10:36:24 19° 295° (WNW) 10:39:22 437.345
TIGRISAT 06 Dec 10:40:32 10:44:26 26° 266° (W) 10:48:19 435.000
FUNcube-1 06 Dec 10:41:08 10:43:56 17° 296° (WNW) 10:46:42 145.935
ANTELSAT 06 Dec 10:42:15 10:45:59 23° 266° (W) 10:49:44 437.575/2403.000
NANOSAT C BR1 06 Dec 10:44:53 10:48:57 45° 72° (ENE) 10:53:01 145.865
GONETS M04 06 Dec 10:48:20 10:55:47 30° 67° (ENE) 11:03:12
QB50P2 06 Dec 10:50:46 10:54:59 60° 74° (ENE) 10:59:14 145.880/145.840
POLYITAN 1 06 Dec 10:51:19 10:55:31 57° 73° (ENE) 10:59:45 437.675
QB50P1 06 Dec 11:04:12 11:08:29 79° 74° (ENE) 11:12:47 145.935-145.965
DUCHIFAT 1 06 Dec 11:06:46 11:11:00 72° 75° (ENE) 11:15:17 145.980
AO-85 06 Dec 11:21:59 11:25:50 50° 241° (WSW) 11:29:34 145.980
POPSAT HIP 1 06 Dec 11:25:49 11:30:03 61° 259° (W) 11:34:20 437.405
50 SAT 06 Dec 11:32:19 11:34:10 13° 92° (E) 11:36:01 437.505
JAS-2 06 Dec 11:33:59 11:40:10 45° 261° (W) 11:45:43 435.910
ESTCUBE 1 06 Dec 11:39:30 11:43:58 58° 101° (E) 11:48:24 437.505/2401.250
PCSat 06 Dec 11:42:42 11:48:04 73° 118° (ESE) 11:53:30 145.827
Oscar 19 06 Dec 11:43:38 11:47:24 21° 62° (ENE) 11:51:11 437.125/150
Gurwin Techsat 1B 06 Dec 11:44:00 11:45:53 12° 56° (NE) 11:47:45 435.225
AISAT 06 Dec 11:45:22 11:49:17 29° 96° (E) 11:53:09 437.250
HUMSAT D 06 Dec 12:00:08 12:01:56 13° 298° (WNW) 12:03:43 437.325/437.525
BUGSAT 1 06 Dec 12:02:42 12:06:55 71° 258° (WSW) 12:11:10 437.445
Cosmos 2499 06 Dec 12:09:52 12:18:35 87° 263° (W) 12:26:37 435.465 / 435.565
CUBEBUG 1 06 Dec 12:10:23 12:14:51 76° 102° (ESE) 12:19:17 437.445
BEESAT 3 06 Dec 12:21:06 12:23:12 14° 38° (NE) 12:25:17 437.485
VELOX 1 06 Dec 12:21:53 12:26:21 67° 102° (ESE) 12:30:47 145.980
NANOSAT C BR1 06 Dec 12:22:07 12:24:53 17° 268° (W) 12:27:40 145.865
QB50P2 06 Dec 12:29:16 12:31:10 13° 270° (W) 12:33:04 145.880/145.840
POLYITAN 1 06 Dec 12:29:34 12:31:39 13° 270° (W) 12:33:47 437.675
RS-15 06 Dec 12:32:36 12:42:27 26° 1° (N) 12:52:22 29.354- 29.394
DX 1 06 Dec 12:34:22 12:38:38 47° 100° (E) 12:42:52 434.975-435.025
TISAT 1 06 Dec 12:40:31 12:41:48 11° 89° (E) 12:43:06 437.305
UKube-1 06 Dec 12:41:00 12:45:07 41° 99° (E) 12:49:13 .
GONETS M04 06 Dec 12:44:39 12:53:12 63° 268° (W) 13:01:46
DUCHIFAT 1 06 Dec 12:46:28 12:47:10 10° 271° (W) 12:47:52 145.980
BEESAT 2 06 Dec 12:50:53 12:52:56 13° 38° (NE) 12:54:59 435.950
SPROUT 06 Dec 12:52:58 12:57:17 83° 285° (WNW) 13:01:33 437.525
AO-7 06 Dec 12:56:06 13:01:40 20° 48° (NE) 13:07:15 29.400- 29.500
50 SAT 06 Dec 13:04:19 13:07:38 38° 288° (WNW) 13:10:57 437.505
ESTCUBE 1 06 Dec 13:17:35 13:20:18 16° 298° (WNW) 13:23:02 437.505/2401.250
Gurwin Techsat 1B 06 Dec 13:19:38 13:24:56 78° 73° (ENE) 13:30:17 435.225
Oscar 19 06 Dec 13:21:20 13:26:19 53° 260° (W) 13:31:22 437.125/150
AISAT 06 Dec 13:21:50 13:25:41 29° 293° (WNW) 13:29:31 437.250
PCSat 06 Dec 13:27:56 13:32:02 21° 318° (NW) 13:36:10 145.827
CUBEBUG 1 06 Dec 13:48:44 13:50:31 12° 300° (WNW) 13:52:17 437.445
ITAMSAT 1 06 Dec 13:50:39 13:55:25 37° 67° (ENE) 14:00:11 435.822/435.867
M-CUBED/EXP-1 PRIME 06 Dec 13:52:45 13:55:03 14° 94° (E) 13:57:19 437.505
BEESAT 3 06 Dec 13:57:23 14:01:23 86° 239° (WSW) 14:05:22 437.485
VELOX 1 06 Dec 13:59:58 14:02:15 14° 299° (WNW) 14:04:33 145.980
Cosmos 2499 06 Dec 14:05:07 14:10:17 18° 285° (WNW) 14:15:16 435.465 / 435.565
DX 1 06 Dec 14:11:29 14:14:27 18° 297° (WNW) 14:17:25 434.975-435.025
TISAT 1 06 Dec 14:13:40 14:17:53 66° 286° (WNW) 14:22:03 437.305
SWISSCUBE 06 Dec 14:17:24 14:21:31 29° 96° (E) 14:25:37 437.505
UKube-1 06 Dec 14:17:44 14:20:52 20° 296° (WNW) 14:23:59 .
BEESAT 06 Dec 14:21:25 14:25:32 28° 96° (E) 14:29:37 436.000
BEESAT 2 06 Dec 14:27:16 14:31:20 89° 97° (E) 14:35:20 435.950
AO-7 06 Dec 14:44:54 14:53:11 79° 69° (ENE) 15:01:33 29.400- 29.500
GONETS M04 06 Dec 14:45:57 14:48:06 11° 289° (WNW) 14:50:17
RS-15 06 Dec 14:47:55 14:59:32 42° 35° (NE) 15:10:52 29.354- 29.394
ITUPSAT 1 06 Dec 14:48:58 14:53:38 52° 100° (E) 14:58:15 437.325
Gurwin Techsat 1B 06 Dec 15:02:51 15:05:29 14° 271° (W) 15:08:07 435.225
ISS 06 Dec 15:11:04 15:11:37 10° 129° (SE) 15:12:09 145.825
AUBIESAT-1 06 Dec 15:12:41 15:17:19 73° 107° (ESE) 15:21:43 437.475
AIST 2 06 Dec 15:21:12 15:23:33 14° 37° (NE) 15:25:53 435.215
MOZHAYETS 4 06 Dec 15:23:50 15:27:53 30° 96° (E) 15:31:53
M-CUBED/EXP-1 PRIME 06 Dec 15:25:18 15:29:59 70° 290° (WNW) 15:34:28 437.505
ITAMSAT 1 06 Dec 15:30:25 15:34:55 29° 264° (W) 15:39:27 435.822/435.867
BRITE-PL 06 Dec 15:44:40 15:48:01 22° 64° (ENE) 15:51:34 437.365/2234.400
KKS-1 06 Dec 15:51:11 15:54:51 24° 95° (E) 15:58:29 437.445
NOAA 15 06 Dec 15:53:58 15:54:22 10° 54° (NE) 15:54:46 137.62
SWISSCUBE 06 Dec 15:55:05 15:59:18 32° 293° (WNW) 16:03:29 437.505
STARS 06 Dec 15:57:13 15:59:15 13° 90° (E) 16:01:16 437.465
Cubesat XI-IV 06 Dec 15:58:18 15:59:04 10° 54° (NE) 15:59:51 437.490
BEESAT 06 Dec 15:59:04 16:03:18 32° 293° (WNW) 16:07:30 436.000
HORYU 2 06 Dec 16:04:26 16:08:19 30° 68° (ENE) 16:12:13 437.375
O/OREOS (USA 219) 06 Dec 16:15:32 16:20:06 84° 113° (ESE) 16:24:40 437.305
ITUPSAT 1 06 Dec 16:27:46 16:31:04 19° 297° (WNW) 16:34:22 437.325
AO-7 06 Dec 16:40:32 16:46:46 23° 268° (W) 16:53:04 29.400- 29.500
LilacSat-2 06 Dec 16:41:31 16:44:04 17° 66° (ENE) 16:46:37 437.200
ISS 06 Dec 16:44:18 16:47:35 81° 146° (SSE) 16:50:54 145.825
AUBIESAT-1 06 Dec 16:48:30 16:51:05 15° 305° (NW) 16:53:37 437.475
Cosmos 2491 06 Dec 16:48:48 16:55:49 26° 65° (ENE) 17:02:46 435.465 / 435.565
GOMX 1 06 Dec 16:54:49 16:59:13 48° 71° (ENE) 17:03:59 467.674
AIST 2 06 Dec 16:58:23 17:02:39 89° 74° (ENE) 17:06:52 435.215
RS-15 06 Dec 17:00:52 17:13:13 77° 242° (WSW) 17:25:08 29.354- 29.394
MOZHAYETS 4 06 Dec 17:01:05 17:04:57 28° 293° (WNW) 17:08:48
M-CUBED/EXP-1 PRIME 06 Dec 17:03:05 17:03:32 10° 309° (NW) 17:03:57 437.505
DOVE 4 06 Dec 17:03:12 17:07:16 27° 66° (ENE) 17:11:31 437.250
CUBESAT XI-V 06 Dec 17:04:25 17:08:58 51° 99° (E) 17:13:31 437.345
CUTE-I 06 Dec 17:07:05 17:12:05 41° 68° (ENE) 17:17:05 437.470
NOAA 18 06 Dec 17:20:34 17:25:36 37° 66° (ENE) 17:30:40 137.9125
YUBILEINY 06 Dec 17:21:58 17:25:50 14° 73° (ENE) 17:29:42 435.215
BRITE-PL 06 Dec 17:22:17 17:26:16 37° 264° (W) 17:30:33 437.365/2234.400
KKS-1 06 Dec 17:27:24 17:31:27 34° 292° (WNW) 17:35:28 437.445
NOAA 15 06 Dec 17:27:58 17:33:10 68° 73° (ENE) 17:38:23 137.62
STARS 06 Dec 17:31:37 17:36:01 62° 286° (WNW) 17:40:21 437.465
Cubesat XI-IV 06 Dec 17:32:48 17:38:08 67° 73° (ENE) 17:43:29 437.490
HORYU 2 06 Dec 17:40:58 17:44:49 28° 264° (W) 17:48:42 437.375
O/OREOS (USA 219) 06 Dec 17:57:59 18:00:08 13° 311° (NW) 18:02:18 437.305
Cosmos 2504 06 Dec 18:09:06 18:12:39 13° 72° (ENE) 18:16:16 435.465 / 435.565
LilacSat-2 06 Dec 18:14:30 18:18:05 37° 262° (W) 18:21:40 437.200
CUTE 1.7 + AOD 2 06 Dec 18:16:40 18:19:45 20° 66° (ENE) 18:22:51 437.475
CINEMA 3 06 Dec 18:17:10 18:21:44 38° 69° (ENE) 18:26:22 145.822/145.860
ISS 06 Dec 18:21:35 18:24:23 25° 344° (NNW) 18:27:12 145.825
HO-68 06 Dec 18:25:19 18:32:04 47° 65° (ENE) 18:38:50 435.675
CUBEBUG 2 06 Dec 18:33:23 18:36:11 16° 62° (ENE) 18:38:57 437.445
CANX-2 06 Dec 18:33:56 18:37:45 34° 70° (ENE) 18:41:35 2200.000
GOMX 1 06 Dec 18:34:25 18:37:40 19° 270° (W) 18:41:04 467.674
AAUSAT CUBESAT 2 06 Dec 18:38:56 18:40:40 12° 62° (ENE) 18:42:25 437.432
DOVE 4 06 Dec 18:40:18 18:44:46 37° 264° (W) 18:49:29 437.250
CUBESAT XI-V 06 Dec 18:42:45 18:45:58 19° 296° (WNW) 18:49:12 437.345
Cosmos 2491 06 Dec 18:44:50 18:53:30 73° 266° (W) 19:02:10 435.465 / 435.565
PCSat 06 Dec 18:47:25 18:50:36 15° 37° (NE) 18:53:45 145.827
CUTE-I 06 Dec 18:47:41 18:52:13 28° 265° (W) 18:56:47 437.470
SEEDS 06 Dec 18:58:05 19:01:55 37° 71° (ENE) 19:05:46 437.485
NOAA 18 06 Dec 19:01:20 19:06:15 32° 264° (W) 19:11:14 137.9125
COMPASS 1 06 Dec 19:07:33 19:11:12 31° 70° (ENE) 19:14:52 437.405
